Waarnemingen

Advertentie
Mijn weer
Vilhelmina, Zweden (2245): temperatuur & dauwpunt: 15.10.2017 08:00:00 - 21.10.2017 08:00:00 (CEST)Vilhelmina, Zweden (2245): windsnelheid & windstoten: 15.10.2017 08:00:00 - 21.10.2017 08:00:00 (CEST)Vilhelmina, Zweden (2245): windrichting: 15.10.2017 08:00:00 - 21.10.2017 08:00:00 (CEST)Vilhelmina, Zweden (2245): luchtdruk: 15.10.2017 08:00:00 - 21.10.2017 08:00:00 (CEST)Vilhelmina, Zweden (2245): zicht: 15.10.2017 08:00:00 - 21.10.2017 08:00:00 (CEST)
Datum & Tijd tt [°C] td [°C] ff [km/u] ff [kn] fx [km/u] fx [kn] dd ppp [hPa] vv [km]
21.10.2017 08:00:00 -3,2 -3,6 9 5 14 8 OZO 1025,3 10
21.10.2017 07:00:00 -3,1 -3,6 11 6 17 9 OZO 1025,8 10
21.10.2017 06:00:00 -3,0 -3,5 11 6 16 8 O 1025,9 10
21.10.2017 05:00:00 -2,8 -3,3 9 5 11 6 OZO 1026,1 10
21.10.2017 04:00:00 -2,9 -3,4 5 3 10 5 OZO 1026,3 4,5
21.10.2017 03:00:00 -2,9 -3,3 8 4 8 5 OZO 1027,0 2,4
21.10.2017 02:00:00 -3,0 -3,4 8 4 11 6 OZO 1026,8 1,2
21.10.2017 01:00:00 -2,8 -3,3 8 4 11 6 OZO 1026,9 10
21.10.2017 00:00:00 -2,8 -3,3 8 4 13 7 OZO 1027,2 4,7
20.10.2017 23:00:00 -2,7 -3,1 8 4 13 7 ZO 1027,2 1,3
20.10.2017 22:00:00 -2,8 -3,1 11 6 17 9 OZO 1027,1 10
20.10.2017 21:00:00 -2,8 -3,2 15 8 19 10 O 1027,0 10
20.10.2017 20:00:00 -2,5 -3,0 9 5 19 11 O 1026,9 10
20.10.2017 19:00:00 -2,8 -3,3 9 5 19 10 OZO 1026,5 10
20.10.2017 18:00:00 -1,7 -2,8 13 7 16 9 O 1026,1 10
20.10.2017 17:00:00 -1,7 -2,7 5 3 9 5 OZO 1025,7 10
20.10.2017 16:00:00 1,9 -1,9 0 0 5 3 N 1025,1 10
20.10.2017 15:00:00 4,0 -0,8 4 2 6 3 W 1024,8 10
20.10.2017 14:00:00 3,0 -0,4 4 2 7 4 - 1025,0 10
20.10.2017 13:00:00 2,1 -0,5 4 2 7 4 - 1025,0 10
20.10.2017 12:00:00 -0,2 -1,8 0 0 6 3 N 1025,2 10
20.10.2017 11:00:00 -3,2 -3,6 4 2 4 2 ZO 1025,3 10
20.10.2017 10:00:00 -4,9 -5,4 0 0 3 1 N 1025,2 10
20.10.2017 09:00:00 -7,1 -7,9 0 0 3 2 N 1025,0 10
20.10.2017 08:00:00 -7,6 -8,4 0 0 3 2 N 1024,5 0,2
20.10.2017 07:00:00 -7,5 -8,2 0 0 4 2 N 1024,2 0,3
20.10.2017 06:00:00 -8,1 -8,9 0 0 3 2 N 1024,3 0,1
20.10.2017 05:00:00 -6,9 -7,6 4 2 4 2 - 1023,8 2,2
20.10.2017 04:00:00 -5,9 -6,3 4 2 4 2 ZO 1023,6 0,3
20.10.2017 03:00:00 -8,2 -9,1 0 0 3 2 N 1023,5 10
20.10.2017 02:00:00 -7,5 -8,2 5 3 5 3 OZO 1023,2 10
20.10.2017 01:00:00 -7,6 -8,4 0 0 3 2 N 1022,9 10
20.10.2017 00:00:00 -7,2 -8,1 2 1 3 2 - 1022,7 10
19.10.2017 23:00:00 -6,5 -7,2 0 0 5 3 N 1022,6 10
19.10.2017 22:00:00 -5,9 -6,4 0 0 7 4 N 1022,4 10
19.10.2017 21:00:00 -5,3 -6,1 0 0 3 2 N 1022,1 10
19.10.2017 20:00:00 -4,6 -5,3 0 0 1 1 N 1021,8 10
19.10.2017 19:00:00 -3,7 -4,2 0 0 4 2 N 1021,4 10
19.10.2017 18:00:00 -2,3 -3,1 0 0 5 3 N 1021,0 10
19.10.2017 17:00:00 0,0 -2,5 4 2 9 5 W 1020,6 10
19.10.2017 16:00:00 5,6 -1,1 9 5 13 7 W 1019,8 10
19.10.2017 15:00:00 6,1 -0,9 9 5 15 8 W 1019,5 10
19.10.2017 14:00:00 6,0 -1,6 8 4 15 8 WNW 1019,5 10
19.10.2017 13:00:00 5,4 -0,9 11 6 16 9 W 1019,4 10
19.10.2017 12:00:00 4,1 0,1 11 6 16 8 W 1019,7 10
19.10.2017 11:00:00 2,4 0,0 9 5 12 6 W 1019,8 10
19.10.2017 10:00:00 -0,2 -1,0 5 3 9 5 W 1019,6 10
19.10.2017 09:00:00 -3,9 -4,3 4 2 5 3 W 1019,2 10
19.10.2017 08:00:00 -5,1 -5,6 0 0 5 3 N 1018,9 10
19.10.2017 07:00:00 -3,6 -3,7 0 0 6 4 N 1018,2 10
19.10.2017 06:00:00 -4,1 -4,4 4 2 8 5 - 1017,7 10
19.10.2017 05:00:00 -3,1 -3,2 4 2 8 5 - 1017,2 10
19.10.2017 04:00:00 -2,0 -2,8 5 3 18 10 WNW 1016,6 10
19.10.2017 03:00:00 -0,9 -1,7 9 5 14 8 W 1015,9 10
19.10.2017 02:00:00 1,7 -1,0 9 5 14 8 WNW 1015,1 10
19.10.2017 01:00:00 1,7 -0,9 11 6 15 8 WNW 1014,5 10
19.10.2017 00:00:00 2,0 -0,1 11 6 18 10 W 1014,1 10
18.10.2017 23:00:00 1,8 0,2 8 4 16 8 WNW 1013,3 10
18.10.2017 22:00:00 -0,9 -1,2 8 4 14 8 W 1012,8 10
18.10.2017 21:00:00 -0,4 -0,8 8 4 11 6 WNW 1011,9 10
18.10.2017 20:00:00 0,1 -0,9 9 5 14 8 WNW 1011,2 10
18.10.2017 19:00:00 0,1 -1,0 5 3 11 6 WNW 1010,5 10
18.10.2017 18:00:00 3,5 0,0 11 6 19 11 WNW 1009,4 10
18.10.2017 17:00:00 5,3 0,5 13 7 27 15 WNW 1008,4 10
18.10.2017 16:00:00 5,9 0,6 15 8 26 14 WNW 1007,4 10
18.10.2017 15:00:00 6,5 1,0 13 7 34 19 NW 1006,4 10
18.10.2017 14:00:00 7,1 1,2 16 9 34 18 WNW 1005,5 10
18.10.2017 13:00:00 7,0 1,3 16 9 35 19 WNW 1004,9 10
18.10.2017 12:00:00 6,3 1,8 13 7 26 14 WNW 1003,9 10
18.10.2017 11:00:00 5,3 3,0 8 4 12 6 W 1003,4 10
18.10.2017 10:00:00 1,8 1,5 0 0 11 6 N 1003,3 10
18.10.2017 09:00:00 -2,4 -2,8 2 1 5 3 - 1002,7 10
18.10.2017 08:00:00 -3,6 -4,0 2 1 5 3 - 1002,3 10
18.10.2017 07:00:00 -3,4 -3,8 0 0 5 3 N 1001,9 10
18.10.2017 06:00:00 -4,2 -4,6 2 1 8 4 - 1001,9 10
18.10.2017 05:00:00 -5,8 -6,5 2 1 4 2 - 1002,0 10
18.10.2017 04:00:00 -4,4 -4,8 0 0 6 3 N 1001,9 10
18.10.2017 03:00:00 -5,0 -5,5 0 0 8 4 N 1001,9 10
18.10.2017 02:00:00 -4,5 -4,9 5 3 7 4 - 1002,1 10
18.10.2017 01:00:00 -5,0 -5,7 0 0 5 3 N 1002,3 10
18.10.2017 00:00:00 -4,9 -5,6 0 0 4 2 N 1002,2 10
17.10.2017 23:00:00 -3,8 -4,1 0 0 8 5 N 1002,1 10
17.10.2017 22:00:00 -4,0 -4,4 2 1 4 2 OZO 1002,0 10
17.10.2017 21:00:00 -3,3 -3,6 4 2 4 2 - 1002,2 10
17.10.2017 20:00:00 -2,3 -2,4 0 0 4 2 N 1001,8 10
17.10.2017 19:00:00 -2,0 -2,4 0 0 6 3 N 1001,9 10
17.10.2017 18:00:00 -0,3 -1,0 4 2 7 4 - 1001,8 10
17.10.2017 17:00:00 1,9 0,6 5 3 9 5 ZZW 1002,2 10
17.10.2017 16:00:00 3,5 1,1 0 0 8 4 N 1002,5 10
17.10.2017 15:00:00 4,5 1,4 4 2 10 5 - 1003,2 10
17.10.2017 14:00:00 4,9 1,4 5 3 10 5 ZZW 1004,0 10
17.10.2017 13:00:00 3,6 1,3 5 3 11 6 Z 1005,0 10
17.10.2017 12:00:00 3,2 1,1 4 2 16 9 - 1006,0 10
17.10.2017 11:00:00 2,5 0,7 11 6 17 9 ZW 1007,0 10
17.10.2017 10:00:00 1,8 0,2 8 4 15 8 ZW 1007,3 10
17.10.2017 09:00:00 0,2 -0,8 5 3 10 6 - 1007,4 10
17.10.2017 08:00:00 1,1 -0,4 13 7 23 12 ZW 1007,3 10
17.10.2017 07:00:00 0,3 -0,8 11 6 18 10 ZZW 1007,6 10
17.10.2017 06:00:00 0,1 -0,8 9 5 16 9 ZZW 1008,1 10
17.10.2017 05:00:00 2,1 -0,5 5 3 27 15 ZZO 1008,1 10
17.10.2017 04:00:00 2,8 -0,5 11 6 21 12 ZW 1008,3 10
17.10.2017 03:00:00 3,0 -0,5 21 11 29 15 WZW 1008,7 10
17.10.2017 02:00:00 3,3 0,2 18 10 27 15 WZW 1008,5 10
17.10.2017 01:00:00 2,4 0,5 18 10 29 16 ZW 1008,2 10
17.10.2017 00:00:00 3,2 0,6 18 10 32 18 WZW 1007,8 10
16.10.2017 23:00:00 3,8 0,8 15 8 24 13 WZW 1007,8 10
16.10.2017 22:00:00 3,2 0,4 22 12 35 19 WZW 1007,1 10
16.10.2017 21:00:00 3,1 0,5 13 7 29 16 W 1007,0 10
16.10.2017 20:00:00 3,6 0,5 21 11 42 23 W 1006,7 10
16.10.2017 19:00:00 4,1 0,6 24 13 48 26 W 1005,9 10
16.10.2017 18:00:00 4,5 0,8 31 17 46 25 W 1005,2 10
16.10.2017 17:00:00 5,3 0,7 31 17 54 29 W 1004,7 10
16.10.2017 16:00:00 6,7 0,4 37 20 65 35 W 1004,2 10
16.10.2017 15:00:00 6,7 0,4 44 24 61 33 W 1003,4 10
16.10.2017 14:00:00 7,6 0,8 41 22 68 37 W 1002,6 10
16.10.2017 13:00:00 7,4 1,5 37 20 64 34 W 1002,0 10
16.10.2017 12:00:00 7,1 1,4 34 18 66 35 W 1001,0 10
16.10.2017 11:00:00 7,0 2,1 31 17 53 28 W 999,6 10
16.10.2017 10:00:00 6,9 2,6 31 17 54 29 W 997,7 10
16.10.2017 09:00:00 7,2 3,6 37 20 71 39 W 996,5 10
16.10.2017 08:00:00 8,6 6,6 28 15 55 30 ZW 994,2 10
16.10.2017 07:00:00 6,9 6,8 11 6 26 14 Z 994,1 10
16.10.2017 06:00:00 6,4 6,4 15 8 23 12 Z 994,8 2,5
16.10.2017 05:00:00 5,9 5,8 9 5 23 12 ZO 996,1 10
16.10.2017 04:00:00 5,6 5,5 13 7 24 13 ZO 996,6 3,5
16.10.2017 03:00:00 5,5 5,2 16 9 31 17 ZZO 998,1 10
16.10.2017 02:00:00 5,4 4,8 13 7 29 16 ZZO 999,4 10
16.10.2017 01:00:00 5,3 4,6 13 7 23 12 ZO 1000,6 10
16.10.2017 00:00:00 4,6 4,0 13 7 21 11 OZO 1001,9 10
15.10.2017 23:00:00 4,9 4,0 9 5 16 9 OZO 1004,3 10
15.10.2017 22:00:00 4,6 3,7 13 7 18 10 O 1005,5 10
15.10.2017 21:00:00 4,7 3,7 8 4 15 8 ZO 1006,4 10
15.10.2017 20:00:00 4,0 3,7 5 3 12 6 ZO 1006,9 10
15.10.2017 19:00:00 4,0 3,7 2 1 8 4 - 1008,4 10
15.10.2017 18:00:00 5,1 3,8 4 2 14 8 - 1009,2 10
15.10.2017 17:00:00 6,2 4,5 8 4 17 9 Z 1009,4 10
15.10.2017 16:00:00 6,3 4,8 8 4 17 9 ZZW 1010,1 10
15.10.2017 15:00:00 6,8 4,6 9 5 16 9 Z 1010,2 10
15.10.2017 14:00:00 7,2 4,2 11 6 20 11 WZW 1010,2 10
15.10.2017 13:00:00 7,9 4,3 15 8 23 12 WZW 1009,9 10
15.10.2017 12:00:00 6,7 4,5 16 9 23 13 WZW 1009,8 10
15.10.2017 11:00:00 5,6 3,8 15 8 21 11 ZW 1009,7 10
15.10.2017 10:00:00 4,7 3,5 13 7 21 11 ZZW 1009,2 10
15.10.2017 09:00:00 3,9 3,0 9 5 19 10 ZZW 1008,8 10
15.10.2017 08:00:00 2,3 1,9 8 4 13 7 ZW 1008,6 10

tt = temperatuur
td = dauwpunt
ff = windsnelheid
fx = windstoten
dd = windrichting
ppp = luchtdruk
vv = zicht

Weerstations in de omgeving